Overview Statistics Trail Chart Weather Telemetry Raw packets
 

This is the latest recevied weather packets stored in our database for station/object W6JCZ-13. If no packets are shown the sender has not sent any weather packets the latest 10 day(s).

<< 1 2 3 4 >>
Time Temp. Humidity Pressure Rain* Wind** Luminosity Snow
1788628817 21.11° C 63% 1013.1 hPa 0 mm - - -
1788628217 20° C 66% 1013.1 hPa 0 mm - - -
1788627616 20° C 65% 1013.2 hPa 0 mm - - -
1788627017 20° C 68% 1013.1 hPa 0 mm - - -
1788626417 19.44° C 68% 1013.1 hPa 0 mm - - -
1788625816 18.89° C 71% 1013 hPa 0 mm - - -
1788625217 18.33° C 73% 1013 hPa 0 mm - - -
1788624617 17.22° C 75% 1012.9 hPa 0 mm - - -
1788624016 16.67° C 78% 1013 hPa 0 mm - - -
1788623416 16.11° C 80% 1013 hPa 0 mm - - -
1788622817 15.56° C 85% 1013.1 hPa 0 mm - - -
1788622217 13.89° C 87% 1013.2 hPa 0 mm - - -
1788621617 13.33° C 88% 1013.1 hPa 0 mm - - -
1788621017 12.22° C 89% 1012.9 hPa 0 mm - - -
1788620416 11.67° C 90% 1012.9 hPa 0 mm - - -
1788619817 11.67° C 89% 1012.9 hPa 0 mm - - -
1788619216 11.67° C 90% 1012.9 hPa 0 mm - - -
1788618616 10.56° C 91% 1013 hPa 0 mm - - -
1788618017 10° C 91% 1012.9 hPa 0 mm - - -
1788617416 8.89° C 91% 1012.7 hPa 0 mm - - -
1788616817 8.89° C 90% 1012.7 hPa 0 mm - - -
1788616216 8.89° C 89% 1012.6 hPa 0 mm - - -
1788615616 9.44° C 90% 1012.4 hPa 0 mm - - -
1788615016 9.44° C 90% 1012.4 hPa 0 mm - - -
1788614416 9.44° C 90% 1012.3 hPa 0 mm - - -

* Rain latest hour (hover to see other rain measurements)
** Current wind speed in m/s (hover to see current wind gust speed)